Date String (YYYY-MM-DD hh:mm:ss) UTC,Instrument flags,absolute air pressure of the measurement (hPa),sample flow rate (lpm),inlet stack bypass flow (lpm),air temperature of the measurement (°C),ambient temperature measured by the external sensor (°C),aerosol sample conditioner tube jacket temperature (°C),OPC LED temperature (°C),internal box temperature (°C),relative humidity of the measurement (%),span deviation,mass concentration of particles derived from Lorenz-Mie calculation of OPC scattering (μg/m³),mass concentration of particles derived from Lorenz-Mie calculation of OPC scattering (μg/m³),mass concentration of particles derived from Lorenz-Mie calculation of OPC scattering (μg/m³)
DateTimeUTC,F1_M11,P_M11,Q1_M11,Q2_M11,T1_M11,T2_M11,T3_M11,T4_M11,T5_M11,U1_M11,ZSPAN_M11,X2_M11,X0_M11,X1_M11
2023-12-29 12:00:00,SystemResetWarning,0834.7,5.00,000.00,018.6,017.2,000.0,027.1,020.0,6.5,0000.0,0000.39,0000.68,0000.31
2023-12-29 12:01:00,SystemResetWarning,0834.7,4.99,000.00,018.6,017.2,000.0,027.1,020.0,6.4,0000.0,0000.39,0000.66,0000.31
2023-12-29 12:02:00,SystemResetWarning,0834.7,4.99,000.00,018.6,017.2,000.0,027.1,020.0,6.4,0000.0,0000.38,0000.64,0000.31
2023-12-29 12:03:00,SystemResetWarning,0834.7,4.99,000.00,018.6,017.2,000.0,027.1,020.0,6.5,0000.0,0000.40,0000.67,0000.31
2023-12-29 12:04:00,SystemResetWarning,0834.7,5.00,000.00,018.6,017.2,000.0,027.1,020.0,6.6,0000.0,0000.41,0000.71,0000.31
2023-12-29 12:05:00,SystemResetWarning,0834.9,5.01,000.00,018.6,017.2,000.0,027.1,020.0,6.5,0000.0,0000.43,0000.76,0000.32
2023-12-29 12:06:00,SystemResetWarning,0834.9,5.00,000.00,018.6,017.2,000.0,027.1,020.0,6.5,0000.0,0000.43,0000.76,0000.32
2023-12-29 12:07:00,SystemResetWarning,0835.0,5.01,000.00,018.6,017.7,000.0,027.1,020.3,6.4,0000.0,0000.44,0000.78,0000.33
2023-12-29 12:08:00,SystemResetWarning,0835.3,4.99,000.00,018.8,018.5,000.0,027.1,020.7,6.4,0000.0,0000.45,0000.80,0000.34
2023-12-29 12:09:00,SystemResetWarning,0835.2,4.99,000.00,018.9,018.7,000.0,027.1,020.6,6.4,0000.0,0000.45,0000.78,0000.34
2023-12-29 12:10:00,SystemResetWarning,0835.0,5.00,000.00,018.9,018.6,000.0,027.1,020.3,6.4,0000.0,0000.41,0000.61,0000.34
2023-12-29 12:11:00,SystemResetWarning,0834.9,5.01,000.00,018.9,018.5,000.0,027.1,020.2,6.5,0000.0,0000.42,0000.62,0000.35
2023-12-29 12:12:00,SystemResetWarning,0834.9,4.99,000.00,018.8,018.3,000.0,027.1,020.1,6.5,0000.0,0000.45,0000.66,0000.36
2023-12-29 12:13:00,SystemResetWarning,0835.0,4.99,000.00,018.8,018.2,000.0,027.1,020.1,6.5,0000.0,0000.46,0000.70,0000.37
2023-12-29 12:14:00,SystemResetWarning,0835.0,5.00,000.00,018.8,018.0,000.0,027.0,020.0,6.5,0000.0,0000.47,0000.69,0000.38
2023-12-29 12:15:00,SystemResetWarning,0835.0,5.00,000.00,018.8,017.9,000.0,027.0,020.0,6.5,0000.0,0000.46,0000.66,0000.38
2023-12-29 12:16:00,SystemResetWarning,0835.0,5.00,000.00,018.8,017.8,000.0,027.1,020.0,6.5,0000.0,0000.45,0000.62,0000.38
2023-12-29 12:17:00,SystemResetWarning,0835.0,5.00,000.00,018.7,017.8,000.0,027.1,020.0,6.4,0000.0,0000.45,0000.63,0000.38
2023-12-29 12:18:00,SystemResetWarning,0835.0,5.00,000.00,018.7,017.7,000.0,027.1,020.0,6.3,0000.0,0000.45,0000.63,0000.38
2023-12-29 12:19:00,SystemResetWarning,0835.0,5.00,000.00,018.7,017.6,000.0,027.1,020.0,6.3,0000.0,0000.45,0000.63,0000.38
2023-12-29 12:20:00,SystemResetWarning,0835.0,4.99,000.00,018.7,017.6,000.0,027.1,020.0,6.3,0000.0,0000.45,0000.63,0000.38
2023-12-29 12:21:00,SystemResetWarning,0835.0,5.00,000.00,018.7,017.5,000.0,027.1,020.0,6.3,0000.0,0000.47,0001.03,0000.39
2023-12-29 12:22:00,SystemResetWarning,0835.0,4.99,000.00,018.7,017.5,000.0,027.1,020.0,6.2,0000.0,0000.48,0001.08,0000.39
2023-12-29 12:23:00,SystemResetWarning,0835.0,5.00,000.00,018.7,017.5,000.0,027.1,020.0,6.2,0000.0,0000.47,0001.06,0000.38
2023-12-29 12:24:00,SystemResetWarning,0835.1,5.00,000.00,018.6,017.5,000.0,027.1,020.0,6.1,0000.0,0000.45,0001.04,0000.38
2023-12-29 12:25:00,SystemResetWarning,0835.0,5.00,000.00,018.7,017.4,000.0,027.1,020.0,6.1,0000.0,0000.44,0001.13,0000.37
2023-12-29 12:26:00,SystemResetWarning,0835.1,5.01,000.00,018.7,017.4,000.0,027.1,020.0,6.0,0000.0,0000.43,0001.13,0000.36
2023-12-29 12:27:00,SystemResetWarning,0835.0,5.00,000.00,018.6,017.4,000.0,027.1,020.0,5.9,0000.0,0000.42,0001.11,0000.35
2023-12-29 12:28:00,SystemResetWarning,0835.0,5.00,000.00,018.6,017.4,000.0,027.1,020.0,5.9,0000.0,0000.41,0001.10,0000.35
2023-12-29 12:29:00,SystemResetWarning,0835.0,5.00,000.00,018.6,017.4,000.0,027.1,020.0,5.8,0000.0,0000.41,0001.09,0000.35
2023-12-29 12:30:00,SystemResetWarning,0835.1,5.00,000.00,018.6,017.4,000.0,027.1,020.0,5.7,0000.0,0000.40,0001.08,0000.34
2023-12-29 12:31:00,SystemResetWarning,0835.1,5.00,000.00,018.6,017.4,000.0,027.1,020.0,5.8,0000.0,0000.40,0001.08,0000.34
2023-12-29 12:32:00,SystemResetWarning,0835.1,5.00,000.00,018.6,017.3,000.0,027.1,020.0,5.9,0000.0,0000.38,0000.74,0000.33
2023-12-29 12:33:00,SystemResetWarning,0835.1,5.00,000.00,018.6,017.3,000.0,027.1,020.0,6.0,0000.0,0000.36,0000.62,0000.32
2023-12-29 12:34:00,SystemResetWarning,0835.2,5.00,000.00,018.6,017.3,000.0,027.1,020.0,6.0,0000.0,0000.34,0000.59,0000.31
2023-12-29 12:35:00,SystemResetWarning,0835.1,5.00,000.00,018.6,017.3,000.0,027.1,020.0,6.0,0000.0,0000.33,0000.67,0000.30
2023-12-29 12:36:00,SystemResetWarning,0835.2,5.00,000.00,018.6,017.3,000.0,027.1,020.0,6.0,0000.0,0000.32,0000.53,0000.30
2023-12-29 12:37:00,SystemResetWarning,0835.2,5.00,000.00,018.6,017.3,000.0,027.1,020.0,5.9,0000.0,0000.31,0000.51,0000.29
2023-12-29 12:38:00,SystemResetWarning,0835.2,5.00,000.00,018.6,017.3,000.0,027.1,020.0,5.8,0000.0,0000.30,0000.49,0000.29
2023-12-29 12:39:00,SystemResetWarning,0835.1,5.00,000.00,018.6,017.3,000.0,027.1,020.0,5.8,0000.0,0000.30,0000.48,0000.28
2023-12-29 12:40:00,SystemResetWarning,0835.1,5.00,000.00,018.6,017.2,000.0,027.1,020.0,5.7,0000.0,0000.29,0000.48,0000.28
2023-12-29 12:41:00,SystemResetWarning,0835.1,5.00,000.00,018.6,017.2,000.0,027.1,020.0,5.7,0000.0,0000.29,0000.48,0000.27
2023-12-29 12:42:00,SystemResetWarning,0835.1,5.00,000.00,018.6,017.2,000.0,027.1,020.0,5.6,0000.0,0000.28,0000.47,0000.26
2023-12-29 12:43:00,SystemResetWarning,0835.1,5.00,000.00,018.6,017.2,000.0,027.1,020.0,5.5,0000.0,0000.28,0000.46,0000.26
2023-12-29 12:44:00,SystemResetWarning,0835.2,5.00,000.00,018.6,017.2,000.0,027.1,020.0,5.5,0000.0,0000.28,0000.47,0000.26
2023-12-29 12:45:00,SystemResetWarning,0835.2,5.00,000.00,018.6,017.5,000.0,027.1,020.2,5.6,0000.0,0000.28,0000.46,0000.26
2023-12-29 12:46:00,SystemResetWarning,0835.2,5.00,000.00,018.7,018.3,000.0,027.1,020.6,5.9,0000.0,0000.28,0000.36,0000.26
2023-12-29 12:47:00,SystemResetWarning,0835.2,5.00,000.00,018.9,018.8,000.0,027.1,020.7,5.8,0000.0,0000.27,0000.37,0000.25
2023-12-29 12:48:00,SystemResetWarning,0835.2,4.99,000.00,018.9,018.8,000.0,027.1,020.5,5.6,0000.0,0000.27,0000.36,0000.24
2023-12-29 12:49:00,SystemResetWarning,0835.1,4.98,000.00,018.9,018.6,000.0,027.1,020.3,5.5,0000.0,0000.27,0000.37,0000.24
2023-12-29 12:50:00,SystemResetWarning,0835.1,5.01,000.00,018.9,018.5,000.0,027.1,020.2,5.5,0000.0,0000.27,0000.37,0000.24
2023-12-29 12:51:00,SystemResetWarning,0835.2,5.01,000.00,018.8,018.3,000.0,027.1,020.1,5.5,0000.0,0000.27,0000.37,0000.24
2023-12-29 12:52:00,SystemResetWarning,0835.1,5.00,000.00,018.8,018.2,000.0,027.1,020.1,5.5,0000.0,0000.26,0000.36,0000.24
2023-12-29 12:53:00,SystemResetWarning,0835.1,4.99,000.00,018.8,018.0,000.0,027.1,020.0,5.7,0000.0,0000.26,0000.35,0000.24
2023-12-29 12:54:00,SystemResetWarning,0835.1,4.99,000.00,018.8,017.9,000.0,027.1,020.0,5.8,0000.0,0000.27,0000.37,0000.24
2023-12-29 12:55:00,SystemResetWarning,0835.2,4.99,000.00,018.8,017.8,000.0,027.1,020.0,5.7,0000.0,0000.28,0000.39,0000.24
2023-12-29 12:56:00,SystemResetWarning,0835.1,5.00,000.00,018.7,017.7,000.0,027.1,020.0,5.6,0000.0,0000.29,0000.42,0000.24
2023-12-29 12:57:00,SystemResetWarning,0835.2,5.00,000.00,018.7,017.7,000.0,027.1,020.0,5.6,0000.0,0000.30,0000.43,0000.24
2023-12-29 12:58:00,SystemResetWarning,0835.2,5.00,000.00,018.7,017.6,000.0,027.1,020.0,5.6,0000.0,0000.30,0000.40,0000.24
2023-12-29 12:59:00,SystemResetWarning,0835.2,5.00,000.00,018.7,017.6,000.0,027.1,020.0,5.6,0000.0,0000.30,0000.41,0000.24
